Atwater, CA

8:49 AM PDT on May 24, 2017 (GMT -0700)
Castle

Weather History for KMER - June, 2013

Change the Weather History Date:

Saturday, June 8, 2013

  Actual Average (KMCE) Record (KMCE)
Temperature  
Mean Temperature 84 °F -  
Max Temperature 105 °F 88 °F 106 °F (2013)
Min Temperature 64 °F 55 °F 46 °F (1950)
Cooling Degree Days 20    
Growing Degree Days 34 (Base 50)    
Moisture  
Dew Point 59 °F    
Average Humidity 53    
Maximum Humidity 88    
Minimum Humidity 19    
Precipitation  
Precipitation 0.00 in - - ()
Sea Level Pressure  
Sea Level Pressure 29.67 in    
Wind  
Wind Speed 5 mph (NW)    
Max Wind Speed 17 mph    
Max Gust Speed -    
Visibility 10 miles    
Events      
Averages and records for this station are not official NWS values.
T = Trace of Precipitation, MM = Missing Value Source: NWS Daily Summary

Daily Weather History Graph

Daily Weather History Graph

Search for Another Location

Airport or City:

Trip Planner

Search our weather history database for the weather conditions in past years. The results will help you decide how hot, cold, wet, or windy it might be!

Date:

Astronomy

Jun. 08, 2013 Rise Set
Actual Time 5:41 AM PDT 8:21 PM PDT
Civil Twilight 5:10 AM PDT 8:52 PM PDT
Nautical Twilight 4:32 AM PDT 9:31 PM PDT
Astronomical Twilight 3:48 AM PDT 10:14 PM PDT
Moon 5:51 AM PDT (6/8) 8:29 PM PDT (6/8)
Length of Visible Light 15h 42m
Length of Day
14h 40m
New Moon, 0% of the Moon is Illuminated
Jun 8
New Moon
Jun 16
First Quarter
Jun 23
Full
Jun 29
Last Quarter
Jul 8
New

Hourly Weather History & Observations

Time (PDT) Temp. Heat Index Dew Point Humidity Pressure Visibility Wind Dir Wind Speed Gust Speed Precip Events Conditions
12:15 AM 73.4 °F - 62.6 °F 69% 29.69 in 10.0 mi North 3.5 mph - N/A   Clear
12:35 AM 75.2 °F - 60.8 °F 61% 29.68 in 10.0 mi NNE 4.6 mph - N/A   Clear
12:55 AM 73.4 °F - 59.0 °F 61% 29.68 in 10.0 mi NNE 3.5 mph - N/A   Clear
1:15 AM 75.2 °F - 57.2 °F 53% 29.67 in 10.0 mi North 3.5 mph - N/A   Clear
1:35 AM 75.2 °F - 55.4 °F 50% 29.67 in 10.0 mi North 5.8 mph - N/A   Clear
1:55 AM 75.2 °F - 55.4 °F 50% 29.67 in 10.0 mi WNW 3.5 mph - N/A   Clear
2:15 AM 75.2 °F - 55.4 °F 50% 29.67 in 10.0 mi NW 3.5 mph - N/A   Clear
2:35 AM 73.4 °F - 59.0 °F 61% 29.67 in 10.0 mi NW 3.5 mph - N/A   Clear
2:55 AM 71.6 °F - 59.0 °F 64% 29.67 in 10.0 mi NNW 3.5 mph - N/A   Clear
3:15 AM 66.2 °F - 60.8 °F 83% 29.68 in 10.0 mi Calm Calm - N/A   Clear
3:35 AM 66.2 °F - 60.8 °F 83% 29.67 in 10.0 mi Calm Calm - N/A   Clear
3:55 AM 66.2 °F - 60.8 °F 83% 29.67 in 10.0 mi Calm Calm - N/A   Clear
4:15 AM 66.2 °F - 60.8 °F 83% 29.67 in 10.0 mi ENE 4.6 mph - N/A   Clear
4:35 AM 64.4 °F - 60.8 °F 88% 29.67 in 10.0 mi South 3.5 mph - N/A   Clear
4:55 AM 66.2 °F - 60.8 °F 83% 29.68 in 10.0 mi SSW 4.6 mph - N/A   Clear
5:15 AM 68.0 °F - 60.8 °F 78% 29.68 in 10.0 mi Calm Calm - N/A   Clear
5:35 AM 66.2 °F - 59.0 °F 78% 29.69 in 10.0 mi Calm Calm - N/A   Clear
5:55 AM 66.2 °F - 59.0 °F 78% 29.69 in 10.0 mi Calm Calm - N/A   Clear
6:15 AM 66.2 °F - 59.0 °F 78% 29.70 in 10.0 mi Calm Calm - N/A   Clear
6:35 AM 69.8 °F - 60.8 °F 73% 29.71 in 10.0 mi Calm Calm - N/A   Clear
6:45 AM 73.4 °F - 60.8 °F 65% 29.71 in 10.0 mi Calm Calm - N/A   Clear
6:55 AM 73.4 °F - 60.8 °F 65% 29.71 in 10.0 mi North - - N/A   Clear
7:45 AM 80.6 °F 81.1 °F 59.0 °F 48% 29.71 in 10.0 mi Calm Calm - N/A   Clear
8:45 AM 89.6 °F 89.5 °F 60.8 °F 38% 29.72 in 10.0 mi Variable 4.6 mph - N/A   Clear
9:45 AM 91.4 °F 89.4 °F 55.4 °F 29% 29.71 in 10.0 mi NW 8.1 mph - N/A   Clear
10:45 AM 95.0 °F 93.0 °F 55.4 °F 26% 29.70 in 10.0 mi NW 6.9 mph - N/A   Clear
11:45 AM 96.8 °F 95.8 °F 57.2 °F 27% 29.69 in 10.0 mi NNW 8.1 mph - N/A   Clear
12:45 PM 100.4 °F 101.3 °F 60.8 °F 27% 29.68 in 10.0 mi NW 9.2 mph - N/A   Clear
2:45 PM 105.8 °F 104.9 °F 55.4 °F 19% 29.65 in 10.0 mi NNW 11.5 mph - N/A   Clear
3:50 PM 105.8 °F 104.9 °F 55.4 °F 19% 29.63 in 10.0 mi NW 9.2 mph - N/A   Clear
4:45 PM 105.8 °F 104.9 °F 55.4 °F 19% 29.62 in 10.0 mi North 17.3 mph - N/A   Clear
5:45 PM 105.8 °F 105.5 °F 57.2 °F 20% 29.61 in 10.0 mi NNW 17.3 mph - N/A   Clear
6:45 PM 102.2 °F 103.6 °F 60.8 °F 26% 29.60 in 10.0 mi NNW 11.5 mph - N/A   Clear
7:45 PM 98.6 °F 101.0 °F 64.4 °F 32% 29.60 in 10.0 mi NW 11.5 mph - N/A   Clear
8:45 PM 91.4 °F 93.2 °F 64.4 °F 41% 29.62 in 10.0 mi NNW 8.1 mph - N/A   Clear
9:15 PM 89.6 °F 91.1 °F 64.4 °F 43% 29.64 in 10.0 mi NW 8.1 mph - N/A   Clear
9:35 PM 87.8 °F 89.4 °F 64.4 °F 46% 29.66 in 10.0 mi NNW 6.9 mph - N/A   Clear
9:55 PM 84.2 °F 84.4 °F 60.8 °F 45% 29.67 in 10.0 mi West 8.1 mph - N/A   Clear
10:15 PM 80.6 °F 80.8 °F 57.2 °F 45% 29.68 in 10.0 mi WNW 8.1 mph - N/A   Clear
10:35 PM 78.8 °F - 55.4 °F 44% 29.69 in 10.0 mi West 8.1 mph - N/A   Clear
10:55 PM 78.8 °F - 55.4 °F 44% 29.69 in 10.0 mi West 8.1 mph - N/A   Clear
11:15 PM 75.2 °F - 55.4 °F 50% 29.70 in 10.0 mi West 6.9 mph - N/A   Clear
11:35 PM 75.2 °F - 55.4 °F 50% 29.70 in 10.0 mi WNW 8.1 mph - N/A   Clear
11:55 PM 75.2 °F - 55.4 °F 50% 29.70 in 10.0 mi WNW 5.8 mph - N/A   Clear